Location: Bernay
(48.6766°N, 2.9386°E)
Time: 16:38:45
(UTC+00:00)

Cosmos 1331 Rocket - Pass Details

Date: 12 January 2026
Orbit: 745 x 773 km, 74.0° (Epoch: 16 February)

Event Time Altitude Azimuth Distance (km) Brightness Sun altitude
Rises 18:48:30 0° 209° (SSW) 3,176 7.7 -24.4°
Reaches altitude 10° 18:50:52 10° 212° (SSW) 2,256 6.9 -24.8°
Maximum altitude 18:55:57 68° 295° (WNW) 803 4.2 -25.6°
Enters shadow 18:57:30 44° 2° (N) 1,032 4.5 -25.9°
